sat.trackr.live / text

‹ back to catalog

GHGSAT-C2

NORAD 47509 · 2021-006DA

PAYLOAD ACTIVE UNKNOWN

§ Identity

Operator
Country
CA
Launch date
2021-01-24
Launch site
AFETR
Launch vehicle
Mass (kg)
RCS (m²)

External: N2YO · Heavens-Above · Gunter

§ Orbital elements

Epoch: 2026-05-25T02:41:43.996128Z

Period
93.66 min
Inclination
97.2168°
Eccentricity
0.0003548
Mean motion
15.37482637 rev/d
Perigee alt
451.1 km
Apogee alt
456.0 km
Semi-major
6,831.7 km
B*
1.5294e-4
RAAN
192.7713°
Arg perigee
238.1639°
Mean anomaly
121.9261°
Rev number
29,630

§ Raw data

GHGSAT-C21 47509U 21006DA  26145.11231477  .00005542  00000+0  15294-3 0  99972 47509  97.2168 192.7713 0003548 238.1639 121.9261 15.37482637296300

JSON: /api/v1/satellites/47509 · /tle

For live sub-satellite position, see the globe view (requires WebGL).

§ Visibility from observer

Set your observer location to see the next 7 days of passes ≥ 10°. The values pass through the URL so the page stays shareable.

No JS? Fill the form by hand. The geolocation button needs JavaScript.